Home   Weather   Friesoythe   Past weeks

Flag for Germany Past Weather in Friesoythe, Lower Saxony, Germany — Yesterday and Last 2 Weeks

Now
27 °F

Chilly.


Feels Like: 27 °F
Forecast: 32 / 36 °F
Wind: No wind

Location: Meppen-Mil

Current Time: Jan 19, 2017 at 3:24:20 am

Latest Report: Jan 19, 2017 at 2:20 am


Visibility: 2 mi

Pressure: 30.69 "Hg

Humidity: 93%

Dew Point: 25 °F

Location of FriesoytheLocation

Past Weather in Friesoythe — Graph

°F

Friesoythe Temperature Yesterday

Maximum temperature yesterday: 28 °F (at 2:20 pm)
Minimum temperature yesterday: 19 °F (at 5:20 am)
Average temperature yesterday: 25 °F

High & Low Weather Summary for the Past Weeks

 TemperatureHumidityPressure
High46 °F (Jan 11, 1:20 pm)100% (Jan 7, 1:20 pm)30.77 "Hg (Jan 7, 1:20 pm)
Low16 °F (Jan 6, 4:20 am)55% (Jan 5, 1:20 pm)29.03 "Hg (Jan 13, 2:20 am)
Average32 °F88%30.13 "Hg
* Reported Jan 4 2:20 am — Jan 19 2:20 am, Friesoythe, Weather by CustomWeather, © 2017

Note: Actual official high and low records may vary slightly from our data, if they occured in-between our weather recording intervals... More about our weather records

Advertising

Friesoythe Weather History for the Previous 24 Hours

Scroll right to see more
 ConditionsComfort  
Time TempWeatherWind HumidityBarometerVisibility
2:20 am
Thu, Jan 19
27 °FChilly.No wind93%30.69 "Hg2 mi
1:20 am27 °FChilly.No wind93%30.69 "Hg1 mi
12:20 am27 °FChilly.1 mph93%30.69 "Hg1 mi
11:20 pm
Wed, Jan 18
27 °FChilly.1 mph93%30.69 "Hg1 mi
10:20 pm27 °FChilly.1 mph93%30.69 "Hg1 mi
9:20 pm27 °FChilly.1 mph100%30.69 "Hg1 mi
8:20 pm28 °FChilly.1 mph93%30.69 "Hg1 mi
7:20 pm28 °FChilly.1 mph93%30.69 "Hg1 mi
6:20 pm28 °FChilly.1 mph93%30.69 "Hg2 mi
5:20 pm28 °FChilly.1 mph93%30.72 "Hg2 mi
4:20 pm28 °FChilly.1 mph93%30.72 "Hg2 mi
3:20 pm28 °FChilly.1 mph93%30.72 "Hg2 mi
2:20 pm28 °FIce fog.2 mph93%30.72 "Hg2 mi
1:20 pm27 °FIce fog.1 mph100%30.72 "Hg2 mi
12:20 pm25 °FIce fog.2 mph100%30.74 "Hg2 mi
11:20 am25 °FIce fog.1 mph93%30.74 "Hg2 mi
10:20 am23 °FIce fog.1 mph93%30.74 "Hg2 mi
9:20 am21 °FIce fog.1 mph93%30.74 "Hg1 mi
8:20 am21 °FIce fog.1 mph93%30.72 "Hg1 mi
7:20 am21 °FIce fog.1 mph93%30.72 "Hg1 mi
6:20 am21 °FCold.1 mph86%30.72 "Hg1 mi
5:20 am19 °FCold.1 mph93%30.72 "Hg0 mi
4:20 am21 °FCold.1 mph93%30.72 "Hg1 mi
3:20 am21 °FCold.No wind93%30.72 "Hg0 mi
Weather by CustomWeather, © 2017

See weather overviewHow to use our weather pages